Le nostre stazioni meteo in Italia

Pubblicità
Il mio iltempo24.it
Capo Caccia, Italia (16522): Temperatura & dewpoint: 09.09.2019 21:00:00 - 15.09.2019 21:00:00 (CEST)Capo Caccia, Italia (16522): velocità del vento: 09.09.2019 21:00:00 - 15.09.2019 21:00:00 (CEST)Capo Caccia, Italia (16522): direzione del vento: 09.09.2019 21:00:00 - 15.09.2019 21:00:00 (CEST)Capo Caccia, Italia (16522): reduced air pressure: 09.09.2019 21:00:00 - 15.09.2019 21:00:00 (CEST)Capo Caccia, Italia (16522): visibility: 09.09.2019 21:00:00 - 15.09.2019 21:00:00 (CEST)Capo Caccia, Italia (16522): ore di luce: 09.09.2019 21:00:00 - 15.09.2019 21:00:00 (CEST)
Data & Tempo tt [°C] td [°C] ff [km/h] ff [kn] dd ppp [hPa] vv [km] sd [min]
15.09.2019 21:00:00 - - - - - - - -
15.09.2019 20:00:00 25,0 17,2 22 12 NNE 1020,2 20 0
15.09.2019 19:00:00 26,0 18,4 18 10 NNE 1020,3 20 0
15.09.2019 18:00:00 26,4 17,2 13 7 NE 1020,7 20 0
15.09.2019 17:00:00 26,0 18,9 8 4 NNE 1020,4 20 0
15.09.2019 16:00:00 26,4 16,9 8 4 NO 1021,4 12 0
15.09.2019 15:00:00 27,2 18,8 13 7 O 1021,4 12 0
15.09.2019 14:00:00 27,0 19,4 11 6 SSO 1022,4 20 60
15.09.2019 13:00:00 27,0 19,6 13 7 S 1022,8 20 60
15.09.2019 12:00:00 26,2 17,3 18 10 S 1023,3 20 60
15.09.2019 11:00:00 26,2 16,7 16 9 S 1023,3 20 60
15.09.2019 10:00:00 23,8 20,1 13 7 S 1023,3 20 42
15.09.2019 09:00:00 24,2 13,7 11 6 E 1022,8 20 18
15.09.2019 08:00:00 22,0 18,8 11 6 E 1022,7 20 0
15.09.2019 07:00:00 22,0 19,9 11 6 ESE 1022,8 20 -
15.09.2019 06:00:00 22,4 20,7 11 6 E 1022,7 20 -
15.09.2019 05:00:00 23,0 21,3 11 6 S 1023,2 20 -
15.09.2019 04:00:00 23,0 20,9 9 5 S 1023,1 20 -
15.09.2019 03:00:00 22,0 19,5 8 4 SE 1023,2 20 -
15.09.2019 02:00:00 22,0 19,7 9 5 ESE 1023,7 20 -
15.09.2019 01:00:00 22,8 20,7 9 5 E 1023,6 20 -
15.09.2019 00:00:00 23,6 21,9 11 6 ESE 1023,4 20 -
14.09.2019 23:00:00 24,4 22,1 9 5 SE 1022,9 20 -
14.09.2019 22:00:00 25,0 23,6 9 5 ESE 1022,6 20 -
14.09.2019 21:00:00 25,4 20,4 8 4 ENE 1022,6 20 -
14.09.2019 20:00:00 27,0 17,5 8 4 NNO 1022,4 20 0
14.09.2019 19:00:00 27,0 21,1 13 7 O 1022,4 20 42
14.09.2019 18:00:00 27,0 21,1 13 7 O 1022,3 20 60
14.09.2019 17:00:00 29,6 20,2 5 3 ONO 1022,1 20 60
14.09.2019 16:00:00 29,0 17,5 13 7 NNO 1022,5 20 60
14.09.2019 15:00:00 26,6 21,1 8 4 ONO 1023,4 20 60
14.09.2019 14:00:00 26,4 21,2 15 8 O 1024,2 20 60
14.09.2019 13:00:00 28,0 18,7 8 4 OSO 1024,3 20 36
14.09.2019 12:00:00 30,2 15,5 8 4 ENE 1024,2 20 60
14.09.2019 11:00:00 29,2 15,7 11 6 NE 1023,9 20 60
14.09.2019 10:00:00 27,4 15,1 18 10 NE 1023,8 20 30
14.09.2019 09:00:00 25,0 14,5 11 6 NE 1024,3 20 36
14.09.2019 08:00:00 23,8 15,6 13 7 NNE 1024,2 20 0
14.09.2019 07:00:00 23,6 15,4 13 7 NNE 1024,2 20 0
14.09.2019 06:00:00 24,2 16,5 5 3 NNO 1023,7 20 -
14.09.2019 05:00:00 22,6 16,4 9 5 ENE 1023,8 20 -
14.09.2019 04:00:00 23,8 17,5 5 3 ENE 1023,6 20 -
14.09.2019 03:00:00 23,2 17,4 8 4 ESE 1023,6 20 -
14.09.2019 02:00:00 22,6 16,4 8 4 E 1024,1 20 -
14.09.2019 01:00:00 22,6 16,4 11 6 ENE 1024,6 20 -
14.09.2019 00:00:00 22,8 19,2 24 13 NE 1024,6 20 -
13.09.2019 23:00:00 22,6 20,5 22 12 NE 1024,5 20 -
13.09.2019 22:00:00 23,2 20,5 24 13 NE 1024,1 20 -
13.09.2019 21:00:00 25,0 20,3 24 13 NNE 1023,9 20 -
13.09.2019 20:00:00 26,0 18,9 16 9 NNE 1024,2 20 0
13.09.2019 19:00:00 28,6 17,2 15 8 NNE 1024,1 20 48
13.09.2019 18:00:00 30,0 18,4 11 6 NNE 1024,0 20 60
13.09.2019 17:00:00 31,6 17,5 8 4 NNO 1023,9 20 60
13.09.2019 16:00:00 31,8 18,8 9 5 N 1024,0 20 60
13.09.2019 15:00:00 32,0 18,6 11 6 ENE 1024,8 20 60
13.09.2019 14:00:00 32,0 14,6 15 8 ENE 1025,1 20 60
13.09.2019 13:00:00 31,0 16,6 18 10 NNE 1025,4 20 60
13.09.2019 12:00:00 29,6 16,4 22 12 E 1025,6 20 60
13.09.2019 11:00:00 26,6 16,5 26 14 ENE 1025,2 20 60
13.09.2019 10:00:00 22,8 15,9 41 22 NE 1024,9 20 48
13.09.2019 09:00:00 23,0 15,6 35 19 NNE 1025,0 20 36
13.09.2019 08:00:00 22,0 16,3 24 13 NNE 1025,5 20 0
13.09.2019 07:00:00 21,6 13,5 24 13 NNE 1025,5 20 -
13.09.2019 06:00:00 21,4 12,5 22 12 NNE 1025,4 20 -
13.09.2019 05:00:00 22,2 16,5 18 10 NNE 1025,8 20 -
13.09.2019 04:00:00 22,4 19,2 5 3 NNE 1026,3 20 -
13.09.2019 03:00:00 23,0 20,2 11 6 SSE 1025,9 20 -
13.09.2019 02:00:00 24,0 21,1 16 9 ESE 1025,8 20 -
13.09.2019 01:00:00 23,4 22,0 21 11 SE 1025,8 20 -
13.09.2019 00:00:00 24,4 21,1 15 8 ESE 1025,7 20 -
12.09.2019 23:00:00 24,6 16,8 11 6 E 1025,6 20 -
12.09.2019 22:00:00 24,6 16,3 28 15 NNE 1024,6 20 -
12.09.2019 21:00:00 24,4 18,8 29 16 NNE 1024,3 20 -
12.09.2019 20:00:00 25,8 16,1 35 19 NNE 1023,9 20 42
12.09.2019 19:00:00 27,8 14,1 37 20 NNE 1023,8 20 60
12.09.2019 18:00:00 28,4 12,7 29 16 NNE 1024,1 20 60
12.09.2019 17:00:00 29,4 15,9 31 17 NNE 1024,1 20 60
12.09.2019 16:00:00 29,4 18,2 21 11 NNE 1024,5 20 60
12.09.2019 15:00:00 26,0 18,9 11 6 NNO 1025,1 20 60
12.09.2019 14:00:00 25,8 18,5 9 5 NNO 1025,6 20 60
12.09.2019 13:00:00 25,6 20,4 15 8 NO 1025,6 20 60
12.09.2019 12:00:00 27,2 18,2 8 4 ONO 1025,4 20 60
12.09.2019 11:00:00 25,2 17,7 8 4 SO 1025,4 20 60
12.09.2019 10:00:00 24,8 17,0 5 3 O 1025,1 20 60
12.09.2019 09:00:00 24,0 16,5 5 3 NE 1024,2 20 60
12.09.2019 08:00:00 21,0 16,8 5 3 E 1023,7 20 0
12.09.2019 07:00:00 20,2 16,4 11 6 ENE 1023,0 20 -
12.09.2019 06:00:00 20,0 16,2 15 8 NE 1023,0 20 -
12.09.2019 05:00:00 20,0 16,4 13 7 ENE 1022,5 20 -
12.09.2019 04:00:00 20,0 18,0 21 11 NE 1021,9 20 -
12.09.2019 03:00:00 21,8 19,5 16 9 NNE 1021,8 20 -
12.09.2019 02:00:00 22,0 19,5 18 10 NNE 1021,8 20 -
12.09.2019 01:00:00 0,0 0,0 0 0 N - - -
12.09.2019 00:00:00 22,2 19,5 24 13 NNE 1021,2 20 -
11.09.2019 23:00:00 22,2 19,5 34 18 NNE 1020,4 20 -
11.09.2019 22:00:00 22,4 21,0 41 22 NE 1019,7 20 -
11.09.2019 21:00:00 23,2 20,2 39 21 NNE 1019,5 20 -
11.09.2019 20:00:00 25,0 19,2 31 17 NNE 1019,2 20 0
11.09.2019 19:00:00 26,0 18,9 18 10 NNE 1018,5 20 30
11.09.2019 18:00:00 27,4 19,0 18 10 N 1018,4 20 30
11.09.2019 17:00:00 27,0 19,9 18 10 NNE 1018,0 20 0
11.09.2019 16:00:00 24,2 20,1 24 13 NNE 1017,6 20 0
11.09.2019 15:00:00 29,0 19,0 18 10 N 1017,3 20 30
11.09.2019 14:00:00 29,0 18,8 8 4 NE 1017,3 20 30
11.09.2019 13:00:00 28,2 18,6 13 7 NE 1017,1 20 30
11.09.2019 12:00:00 26,8 19,4 22 12 NE 1016,4 20 0
11.09.2019 11:00:00 26,4 18,5 24 13 NE 1016,0 20 0
11.09.2019 10:00:00 24,2 18,4 26 14 NE 1014,4 20 0
11.09.2019 09:00:00 21,4 18,0 21 11 NE 1014,4 20 0
11.09.2019 08:00:00 20,0 17,2 18 10 ENE 1013,9 20 0
11.09.2019 07:00:00 20,0 19,4 18 10 NE 1013,5 20 0
11.09.2019 06:00:00 21,0 19,3 13 7 NO 1013,0 20 -
11.09.2019 05:00:00 21,6 18,0 16 9 SSO 1013,7 20 -
11.09.2019 04:00:00 20,2 18,0 13 7 NE 1010,9 20 -
11.09.2019 03:00:00 20,2 18,3 11 6 NE 1012,5 20 -
11.09.2019 02:00:00 20,8 17,2 18 10 ENE 1011,7 20 -
11.09.2019 01:00:00 22,0 18,0 11 6 ESE 1011,5 20 -
11.09.2019 00:00:00 22,0 17,6 13 7 SE 1011,5 20 -
10.09.2019 23:00:00 21,2 19,1 15 8 E 1011,5 20 -
10.09.2019 22:00:00 21,8 19,5 11 6 NE 1011,3 20 -
10.09.2019 21:00:00 22,0 19,5 11 6 ENE 1010,4 20 -
10.09.2019 20:00:00 22,4 19,4 9 5 NNE 1010,2 20 0
10.09.2019 19:00:00 24,0 20,5 9 5 NNO 1009,6 20 18
10.09.2019 18:00:00 25,0 20,9 9 5 O 1009,4 20 60
10.09.2019 17:00:00 25,4 20,4 11 6 SSO 1008,9 20 60
10.09.2019 16:00:00 26,0 20,1 9 5 NNO 1009,1 20 60
10.09.2019 15:00:00 26,0 19,4 9 5 SSE 1009,4 20 60
10.09.2019 14:00:00 25,0 18,7 18 10 S 1010,0 20 60
10.09.2019 13:00:00 23,4 17,6 24 13 S 1010,4 20 60
10.09.2019 12:00:00 23,4 17,8 29 16 S 1011,2 20 60
10.09.2019 11:00:00 24,0 15,2 22 12 SE 1012,1 20 60
10.09.2019 10:00:00 23,2 15,8 16 9 SSE 1012,4 20 60
10.09.2019 09:00:00 22,0 15,8 11 6 E 1011,5 20 36
10.09.2019 08:00:00 21,4 16,1 15 8 E 1011,6 20 0
10.09.2019 07:00:00 20,4 15,8 13 7 E 1012,5 20 -
10.09.2019 06:00:00 20,2 16,7 11 6 SE 1012,7 20 -
10.09.2019 05:00:00 20,2 15,6 9 5 SE 1013,5 20 -
10.09.2019 04:00:00 20,2 15,6 11 6 E 1013,7 20 -
10.09.2019 03:00:00 20,0 15,9 11 6 SSE 1014,6 20 -
10.09.2019 02:00:00 19,6 17,9 11 6 SE 1015,0 20 -
10.09.2019 01:00:00 19,4 13,8 8 4 S 1015,6 20 -
10.09.2019 00:00:00 19,2 16,8 8 4 SE 1015,9 20 -
09.09.2019 23:00:00 19,6 17,5 9 5 ESE 1015,9 20 -
09.09.2019 22:00:00 20,6 16,0 5 3 S 1015,8 20 -
09.09.2019 21:00:00 21,0 15,8 4 2 O 1015,7 20 -

tt = Temperatura
td = dewpoint
ff = velocità del vento
dd = direzione del vento
ppp = reduced air pressure
vv = visibility
sd = ore di luce

Stazioni seguenti

WeatherPro
AMSI
MeteoEarth